This is the latest recevied weather packets stored in our database for station/object IZ1UQG-2. If no packets are shown the sender has not sent any weather packets the latest 10 day(s).
| Time | Temp. | Humidity | Pressure | Rain* | Wind** | Luminosity | Snow |
|---|---|---|---|---|---|---|---|
| 1777510504 | 13.89° C | 86% | 1019.3 hPa | 0.51 mm | - | 0 W/m² | - |
| 1777509784 | 13.89° C | 86% | 1019.2 hPa | 0.51 mm | - | 0 W/m² | - |
| 1777509485 | 13.89° C | 86% | 1019.3 hPa | 0.51 mm | - | 0 W/m² | - |
| 1777509424 | 13.89° C | 86% | 1019.3 hPa | 0.51 mm | - | 0 W/m² | - |
| 1777509124 | 13.89° C | 86% | 1019.1 hPa | 0.51 mm | - | 0 W/m² | - |
| 1777509004 | 13.89° C | 86% | 1019.2 hPa | 0.51 mm | - | 0 W/m² | - |
| 1777508110 | 13.89° C | 86% | 1019.1 hPa | 0.51 mm | - | 0 W/m² | - |
| 1777507865 | 14.44° C | 86% | 1019.2 hPa | 0.51 mm | - | 0 W/m² | - |
| 1777507144 | 13.89° C | 86% | 1019.2 hPa | 0.51 mm | - | 0 W/m² | - |
| 1777507024 | 13.89° C | 87% | 1019 hPa | 0.51 mm | - | 0 W/m² | - |
| 1777506905 | 14.44° C | 87% | 1019.1 hPa | 0.51 mm | - | 0 W/m² | - |
| 1777506784 | 14.44° C | 87% | 1019.1 hPa | 0.51 mm | - | 0 W/m² | - |
| 1777506485 | 14.44° C | 87% | 1019.1 hPa | 0.51 mm | - | 0 W/m² | - |
| 1777505644 | 14.44° C | 86% | 1018.9 hPa | 0.51 mm | - | 0 W/m² | - |
| 1777505525 | 14.44° C | 86% | 1018.9 hPa | 0.51 mm | - | 0 W/m² | - |
| 1777504804 | 14.44° C | 86% | 1018.9 hPa | 0.51 mm | - | 0 W/m² | - |
| 1777504384 | 15° C | 85% | 1018.7 hPa | 0.76 mm | - | 0 W/m² | - |
| 1777504324 | 15° C | 85% | 1018.7 hPa | 1.02 mm | - | 0 W/m² | - |
| 1777504024 | 15° C | 84% | 1018.7 hPa | 2.03 mm | - | 0 W/m² | - |
| 1777503905 | 15° C | 84% | 1018.6 hPa | 2.29 mm | - | 0 W/m² | - |
| 1777503484 | 15° C | 83% | 1018.6 hPa | 3.05 mm | - | 0 W/m² | - |
| 1777502825 | 15° C | 83% | 1018.4 hPa | 3.05 mm | - | 0 W/m² | - |
| 1777502404 | 15.56° C | 83% | 1018.2 hPa | 3.05 mm | - | 0 W/m² | - |
| 1777502344 | 15° C | 83% | 1018.1 hPa | 3.05 mm | - | 0 W/m² | - |
| 1777502044 | 15.56° C | 83% | 1018 hPa | 3.05 mm | - | 0 W/m² | - |
* Rain latest hour (hover to see other rain measurements)
** Current wind speed in m/s (hover to see current wind gust speed)